Вернуться в каталог

USA 422

АктивенВоенныеVLEO
NORAD 61645·PAYLOAD·🇺🇸 United States

Запущен Oct 24, 2024 с Vandenberg Space Force Base

Loading…

Ближайшие Пролёты (ближайшие 24 часа)

TLE

УстаревшееSource: Mike McCants

Эпоха: Aug 12, 2026, 20:13 UTC

1 61645U 24192B   26224.84264998 0.00000000  00000-0  00000-0 0    09
2 61645  70.0320 124.5295 0003000 162.1993 197.8007 14.96713660    03

Отслеживайте USA 422 в реальном времени с AllMySat

Download on the App Store